Flag for Russia Weather past 2 weeks in Murmansk, Russia

Now
48 °F

Sunny.


Feels Like: 48 °F
Forecast: 50 / 59 °F
Wind: 1 mph from Northeast

Location: Murmansk Airport

Current Time: May 27, 2015 at 9:56:40 AM

Latest Report: May 27, 2015 at 9:00 AM


Visibility: 10 mi

Pressure: 29.89 "Hg

Humidity: 62%

Dew point: 36 °F

Location of MurmanskLocation

Historic Weather in Murmansk — Graph

°F

Murmansk temperature yesterday

Maximum temperature yesterday: 52 °F (at 4:30 PM)
Minimum temperature yesterday: 37 °F (at 3:00 AM)
Average temperature yesterday: 44 °F

Past Weeks' High & Low Weather Summary

 TemperatureHumidityPressure
High68 °F (May 20, 5:00 PM)93% (May 12, 10:30 PM)30.01 "Hg (May 12, 10:30 PM)
Low32 °F (May 18, 4:00 AM)21% (May 22, 8:00 PM)29.18 "Hg (May 24, 2:30 AM)
Average43 °F72%29.69 "Hg
* Reported May 12 8:00 AM — May 27 8:30 AM, Murmansk, Weather by CustomWeather, © 2015

Note: Actual official high and low records may vary slightly from our data, if they occured in-between our weather recording intervals... More about our weather records

Advertising

Murmansk weather history for previous 24 hours

 ConditionsComfort  
Time TempWeatherWind HumidityBarometerVisibility
8:30 AM
Wed, May 27
48 °FSunny.6 mph58%29.89 "Hg10 mi
8:00 AM46 °FPassing clouds.3 mph62%29.89 "HgN/A
7:30 AM46 °FSunny.8 mph62%29.92 "Hg10 mi
7:00 AM45 °FSunny.3 mph66%29.92 "Hg10 mi
6:30 AM45 °FSunny.6 mph66%29.89 "Hg10 mi
6:00 AM43 °FSunny.6 mph71%29.92 "Hg10 mi
5:30 AM39 °FSunny.3 mph81%29.92 "Hg10 mi
5:00 AM41 °FSunny.3 mph76%29.92 "Hg10 mi
4:30 AM39 °FSunny.3 mph81%29.92 "Hg10 mi
4:00 AM39 °FSunny.3 mph81%29.92 "Hg10 mi
3:30 AM39 °FSunny.3 mph81%29.92 "Hg10 mi
3:00 AM41 °FSunny.1 mph76%29.92 "Hg10 mi
2:30 AM39 °FSunny.1 mph81%29.92 "Hg10 mi
2:00 AM41 °FSunny.1 mph76%29.92 "Hg10 mi
1:30 AM41 °FSunny.1 mph76%29.92 "Hg10 mi
1:00 AM41 °FSunny.No wind76%29.92 "Hg10 mi
12:30 AM41 °FSunny.No wind76%29.95 "Hg10 mi
12:00 AM41 °FSunny.1 mph76%29.92 "Hg10 mi
11:30 PM
Tue, May 26
43 °FSunny.1 mph71%29.95 "Hg10 mi
11:00 PM43 °FSunny.1 mph71%29.92 "Hg10 mi
10:30 PM45 °FSunny.3 mph66%29.92 "Hg10 mi
10:00 PM45 °FSunny.6 mph66%29.92 "Hg10 mi
9:30 PM46 °FSunny.3 mph57%29.92 "Hg10 mi
9:00 PM46 °FSunny.6 mph62%29.92 "Hg10 mi
8:30 PM46 °FSunny.6 mph57%29.92 "Hg10 mi
8:00 PM48 °FSunny.8 mph54%29.92 "Hg10 mi
7:30 PM50 °FPassing clouds.6 mph47%29.92 "HgN/A
7:00 PM50 °FPassing clouds.6 mph43%29.92 "HgN/A
6:30 PM50 °FScattered clouds.3 mph43%29.92 "HgN/A
6:00 PM52 °FScattered clouds.6 mph41%29.92 "HgN/A
5:30 PM50 °FScattered clouds.8 mph43%29.92 "HgN/A
5:00 PM52 °FScattered clouds.6 mph41%29.92 "HgN/A
4:30 PM52 °FScattered clouds.8 mph41%29.92 "HgN/A
4:00 PM50 °FScattered clouds.6 mph40%29.92 "HgN/A
3:30 PM50 °FScattered clouds.3 mph40%29.92 "HgN/A
3:00 PM50 °FScattered clouds.6 mph43%29.92 "HgN/A
2:30 PM48 °FScattered clouds.3 mph46%29.92 "HgN/A
2:00 PM48 °FScattered clouds.3 mph46%29.92 "HgN/A
1:30 PM46 °FPartly sunny.6 mph50%29.92 "HgN/A
1:00 PM46 °FScattered clouds.1 mph50%29.92 "HgN/A
12:30 PM45 °FScattered clouds.3 mph57%29.92 "HgN/A
12:00 PM45 °FSprinkles. Scattered clouds.1 mph57%29.92 "HgN/A
11:30 AM45 °FScattered clouds.3 mph61%29.92 "HgN/A
11:00 AM43 °FSprinkles. Scattered clouds.6 mph66%29.92 "HgN/A
10:30 AM43 °FScattered clouds.6 mph61%29.92 "HgN/A
10:00 AM43 °FScattered clouds.3 mph61%29.92 "HgN/A
9:30 AM43 °FScattered clouds.6 mph61%29.92 "HgN/A
9:00 AM41 °FScattered clouds.3 mph70%29.92 "HgN/A
Weather by CustomWeather, © 2015

See weather overviewHow to use our weather pages